Dewpoint
72 71 70 69 70 69 67 64 54 58 54 51 52 54 54 62 63 62 61 62 60 64 66 62 60 61 61 59 58 62 63 57 57 50 47 54 69 70 71 72 72 73 72 73 73 74 74 75 76 76 76 76 76 76 75 76 76 76 76 76 76 76 76 76 76 76 76 76 75 75 75 75 75 75 75 75 75 75 75 75 75 75 75 75 75 75 74 73 73 74 74 74 74 74 73 74 74
70 70 70 70 68 67 62 62 54 56 56 53 53 57 57 62 61 60 60 61 62 63 64 60 64 65 65 63 62 60 61 64 65 63 66 69 71 71 72 72 73 72 73 73 73 74 75 76 76 76 75 76 76 76 76 75 76 76 76 76 76 76 76 76 76 76 76 75 75 75 75 75 75 75 75 75 75 75 75 75 75 75 74 75 74 74 74 73 73 74 74 74 74 74 74 74 74
70 70 69 70 69 67 66 61 53 54 52 50 53 56 62 60 60 61 63 64 64 63 63 63 64 66 64 63 60 60 56 65 65 66 66 70 68 70 72 72 73 73 74 74 74 74 75 76 76 76 75 76 76 75 76 76 76 76 76 76 76 76 76 76 76 76 75 75 75 75 75 75 75 75 75 75 75 75 74 74 75 75 75 75 74 74 73 74 73 74 73 74 74 74 74 74 74
70 70 68 68 64 66 59 58 53 52 49 51 53 59 61 62 61 63 65 65 63 63 61 60 60 64 65 60 61 63 63 63 65 66 66 68 66 71 72 72 74 73 74 74 74 75 75 75 77 76 76 76 75 75 75 75 76 76 76 76 76 76 76 76 76 75 75 75 75 75 75 75 74 75 75 75 75 75 75 75 75 75 75 75 74 74 74 74 74 72 73 74 75 74 73 74 74
69 70 70 68 64 60 60 59 57 56 52 53 52 59 61 62 63 64 65 65 63 63 62 61 61 63 68 63 61 59 61 66 66 67 67 69 71 72 72 73 73 74 74 74 75 75 75 76 77 76 76 76 75 75 76 76 76 76 76 76 75 76 76 76 76 75 75 75 75 75 75 75 75 74 75 75 75 75 75 75 75 75 75 75 75 74 75 74 74 74 74 74 74 74 74 73 74
69 69 70 70 62 66 63 57 56 55 57 60 58 58 62 64 63 64 64 65 67 64 63 62 60 61 62 63 64 62 64 62 65 66 67 70 71 72 72 73 73 74 74 75 75 75 75 76 76 76 76 76 76 76 76 76 76 76 76 75 76 75 75 75 75 76 76 76 75 75 75 75 75 74 75 75 75 75 75 74 74 75 75 74 74 75 74 74 75 75 75 74 73 72 73 73 74
67 68 69 69 65 66 57 56 56 56 59 61 61 62 63 64 64 64 63 62 63 66 66 62 62 61 60 63 64 65 66 66 66 66 69 71 71 72 72 73 73 74 74 74 75 75 75 76 76 76 76 75 75 75 76 76 75 76 75 75 75 75 75 75 75 75 75 75 75 75 75 75 75 75 75 74 75 75 75 75 74 75 75 75 75 75 74 74 74 74 75 74 74 74 73 73 72
71 68 66 63 60 61 56 56 56 59 60 62 63 63 64 64 65 63 62 60 61 61 62 61 61 62 61 65 61 66 67 67 67 69 71 71 71 72 72 73 73 74 74 74 74 75 76 76 75 75 75 75 75 75 75 76 76 76 75 75 75 75 75 75 75 76 75 74 75 75 75 75 75 75 75 75 75 75 75 75 75 74 74 74 74 74 74 74 75 75 74 74 75 73 74 72 73
70 69 68 63 58 59 57 56 57 62 61 62 63 65 65 65 66 63 61 64 63 64 62 61 61 59 62 63 63 66 68 69 70 71 71 71 71 72 72 73 73 73 74 74 75 75 76 76 76 76 76 76 76 75 76 75 76 75 75 75 75 75 75 75 75 75 75 74 75 75 75 75 74 75 75 75 74 74 75 75 75 74 74 75 75 75 75 75 75 75 74 74 74 74 74 73 73
68 68 61 60 61 55 56 57 57 60 61 63 63 64 65 66 65 63 63 61 62 62 61 62 64 61 63 62 64 66 68 70 70 70 70 71 71 72 72 73 73 73 74 74 75 75 75 76 76 76 76 76 75 75 75 75 75 75 75 75 75 75 75 75 75 75 75 75 75 75 75 75 75 75 74 75 74 75 75 75 75 75 75 75 75 75 75 75 74 74 74 74 74 74 74 74 74
64 67 67 59 56 54 53 55 58 60 61 63 64 65 65 65 65 63 65 63 63 61 61 62 61 61 62 63 65 68 69 70 69 69 70 71 71 72 72 73 73 74 74 74 75 75 76 75 76 76 76 76 75 75 75 76 76 75 75 75 75 75 75 75 75 75 75 75 75 75 74 74 74 75 75 75 74 74 74 74 74 75 75 75 75 75 74 75 75 75 74 74 74 74 75 73 73
63 63 63 56 56 55 56 56 58 60 62 63 62 65 66 66 64 62 63 61 61 60 60 61 61 62 61 62 64 69 69 69 69 70 70 71 71 72 72 73 73 74 74 74 75 75 75 75 76 75 76 75 76 76 76 76 76 76 75 75 74 75 75 75 75 75 75 75 75 75 74 75 75 75 75 74 74 75 75 74 75 75 75 75 75 75 75 74 74 75 75 74 74 74 74 74 74
63 63 60 58 57 57 58 57 58 59 61 62 63 65 67 65 63 64 64 62 61 60 61 64 62 62 60 62 67 67 67 69 69 70 70 70 71 72 73 73 73 74 74 75 75 75 75 75 75 75 75 76 75 76 76 75 75 75 75 75 75 75 75 75 75 75 75 75 75 74 74 75 75 75 75 75 74 74 74 74 75 75 75 74 75 74 74 74 74 75 74 75 75 74 74 74 74
64 65 62 56 60 59 58 58 59 58 58 62 64 66 66 65 66 67 65 61 62 61 62 63 62 63 62 64 65 66 67 69 69 69 70 71 72 72 72 73 73 74 74 75 75 75 75 75 75 75 75 76 75 76 76 75 75 75 76 76 75 75 75 75 75 75 75 75 75 75 74 74 75 75 75 75 74 74 75 75 74 75 74 74 74 75 74 74 74 75 74 75 74 75 75 74 75
64 66 63 59 58 58 59 57 59 59 58 62 64 65 66 67 67 67 65 61 63 67 63 63 63 61 60 61 62 65 67 68 69 69 70 71 72 72 72 73 73 74 74 74 75 74 74 75 75 75 75 75 75 75 75 76 76 75 75 75 75 75 75 75 75 75 75 75 75 75 74 75 75 75 75 75 75 75 74 75 74 74 75 74 74 74 74 75 75 75 74 74 74 74 74 74 74
66 66 63 58 56 57 59 59 59 59 59 62 64 66 65 67 69 66 66 69 63 67 62 62 62 63 61 61 63 66 68 68 68 70 71 71 71 72 72 73 73 74 74 74 74 75 74 74 75 75 74 74 74 74 75 76 75 75 75 75 75 75 74 75 75 75 74 75 75 75 75 75 75 75 75 75 75 75 74 74 74 74 74 74 74 74 75 75 75 75 74 74 74 73 74 74 74
67 67 59 58 55 57 60 60 60 56 62 64 66 65 63 64 67 67 70 70 62 62 66 62 61 62 61 62 65 67 67 68 70 70 70 71 71 71 72 72 73 73 74 74 74 74 74 74 74 74 74 74 74 75 74 74 76 75 75 75 75 75 75 75 75 74 75 75 76 75 76 75 74 75 76 74 75 74 74 74 73 74 74 74 75 74 74 74 74 74 74 74 74 74 74 74 74
68 61 59 56 57 57 61 61 63 64 62 64 65 66 64 62 65 66 69 64 66 65 63 62 62 62 63 65 66 67 67 69 70 70 70 70 70 70 70 71 72 72 73 74 74 75 74 74 73 74 74 74 75 75 75 75 76 76 75 75 76 75 75 75 76 76 76 76 75 76 77 76 75 74 75 75 75 74 74 74 74 74 74 74 74 74 74 75 75 75 75 74 74 74 76 75 74
63 60 58 55 57 59 64 64 64 63 63 64 65 67 64 64 65 66 63 63 63 62 62 62 61 62 63 64 65 65 68 69 69 69 69 69 69 69 69 70 71 72 72 73 74 74 74 74 73 74 74 74 74 75 74 75 75 75 75 74 75 75 75 76 76 76 75 75 76 76 76 75 76 75 74 74 74 74 75 74 74 74 74 74 74 75 75 74 75 74 74 74 75 76 75 74 73
63 61 57 57 59 62 64 65 65 67 66 64 65 66 66 66 66 67 63 62 62 61 60 61 61 61 62 63 64 66 68 68 69 69 68 68 68 68 69 69 70 71 71 72 73 74 74 74 73 74 74 74 74 74 74 74 74 74 74 75 75 75 76 76 75 75 75 75 75 75 75 76 75 75 75 74 74 73 75 74 74 74 73 74 75 76 75 75 76 76 75 76 75 75 74 74 73
63 61 58 58 59 61 63 67 66 67 67 65 65 66 66 67 67 67 63 61 62 62 61 61 60 61 62 62 64 66 67 68 68 68 68 68 68 68 69 69 69 71 71 72 73 73 74 74 74 74 74 74 74 75 74 74 74 74 75 75 75 75 75 75 75 75 75 75 75 75 75 76 75 75 75 74 74 73 74 74 73 74 75 76 76 75 75 75 75 74 74 75 74 74 73 73 73
59 61 61 60 61 60 65 67 67 65 67 65 65 64 64 68 67 66 63 59 60 62 61 61 61 61 61 62 64 66 67 67 68 68 68 68 68 68 69 69 70 71 72 72 72 73 74 74 73 74 74 74 74 74 74 75 75 74 74 74 75 75 75 75 75 75 75 75 75 76 75 75 75 75 74 74 74 73 73 73 73 75 75 75 75 74 74 74 74 74 74 74 74 74 73 74 75
57 58 58 59 60 60 66 65 66 67 65 64 64 66 67 65 65 66 63 64 67 68 63 62 61 61 62 63 65 66 67 67 67 67 68 67 68 68 68 69 70 70 71 72 72 73 73 73 74 74 74 74 74 75 75 75 74 74 74 74 74 74 75 75 75 75 75 75 75 76 74 74 74 74 74 74 74 74 74 74 74 75 74 74 74 74 74 74 74 74 74 74 73 73 72 73 74
56 55 55 57 58 59 65 64 66 67 65 64 66 67 65 65 63 66 64 68 69 69 66 62 62 61 62 64 65 65 66 67 67 67 68 67 67 68 68 69 70 71 71 72 72 72 73 73 73 74 74 74 74 74 75 74 74 74 75 76 75 75 75 75 75 75 75 75 76 77 76 74 75 74 74 74 74 74 74 74 74 74 74 74 74 74 73 73 73 74 74 74 74 73 72 73 74
54 54 54 54 56 62 64 65 66 67 67 67 66 64 65 66 65 65 64 67 68 68 65 62 62 61 62 64 64 65 66 66 67 67 68 67 67 68 69 69 70 70 70 71 72 72 73 73 73 73 74 74 74 74 74 74 74 74 75 75 74 76 74 75 75 75 75 75 76 77 76 74 74 74 74 74 74 74 74 74 74 74 74 74 74 74 74 73 73 73 73 74 73 73 73 72 74
52 52 51 51 54 63 64 65 66 66 67 65 64 65 66 66 66 64 67 67 68 67 65 62 61 61 62 63 64 65 65 66 66 67 67 67 67 68 68 69 69 70 70 71 72 72 72 73 73 73 73 74 74 74 74 74 74 74 74 74 74 75 74 75 75 75 75 75 75 76 76 74 74 74 74 74 74 73 74 74 74 74 74 74 74 73 74 73 73 73 73 73 74 73 74 75 73
48 46 48 48 50 62 64 64 65 66 65 65 64 64 65 65 64 61 68 67 68 66 64 62 61 61 61 63 64 65 65 65 66 67 67 67 67 67 68 68 69 69 70 71 72 72 73 73 73 73 73 74 74 74 74 74 74 73 74 74 74 75 74 75 76 75 75 75 75 75 75 76 74 74 74 74 73 73 73 73 73 73 73 73 73 73 74 74 73 73 73 73 73 74 74 75 74
40 41 37 46 45 62 64 64 65 65 64 66 63 61 65 66 65 64 66 69 68 65 64 61 61 61 61 63 63 64 65 66 66 67 66 66 67 67 67 68 69 69 70 71 71 72 72 72 73 73 73 74 74 74 75 74 73 73 74 74 74 75 75 75 75 75 76 75 75 74 75 75 76 74 75 74 73 73 73 73 73 73 73 73 74 73 74 74 74 74 75 74 74 74 74 73 75
42 40 35 59 60 61 64 64 64 63 63 65 65 63 61 63 61 66 66 68 67 65 63 60 60 60 60 62 63 64 64 65 66 66 66 67 67 67 67 68 69 69 70 71 71 72 72 72 72 73 73 74 74 74 74 74 74 74 74 74 74 75 75 75 75 75 75 75 75 74 74 75 76 75 74 74 74 72 73 73 73 73 73 73 73 73 74 74 74 73 74 75 74 73 73 73 74
38 36 41 58 58 59 62 64 64 62 63 65 61 53 57 61 64 65 66 66 66 64 63 60 60 60 59 61 61 63 64 65 65 66 66 67 67 67 67 68 69 69 70 71 71 71 72 72 72 73 73 73 74 74 74 73 73 73 74 74 75 75 75 74 75 75 75 75 74 74 74 74 75 75 74 74 73 73 72 73 72 73 73 73 74 73 72 73 73 72 74 74 75 73 72 72 72
33 36 53 57 55 56 61 63 63 61 64 64 60 52 56 61 64 67 66 66 64 62 62 60 60 60 58 60 60 61 63 64 65 65 66 67 67 67 67 68 69 70 70 70 70 71 72 72 72 72 73 73 74 73 74 73 73 73 74 74 74 74 74 74 74 74 74 74 74 73 74 74 75 75 74 74 73 72 72 72 72 72 73 73 73 73 72 72 72 72 73 73 73 72 72 74 73
33 32 31 39 53 56 60 63 62 59 63 64 60 53 57 61 64 66 67 67 64 62 62 61 59 59 58 59 60 60 62 63 64 65 66 66 67 67 67 68 69 69 70 70 70 71 71 71 72 72 72 73 73 73 73 73 73 73 73 74 73 74 74 74 74 73 74 74 74 73 74 74 75 74 74 74 73 72 72 72 72 72 73 73 73 73 73 72 72 72 73 73 73 72 73 71 73
34 31 31 50 49 57 59 61 62 61 63 63 60 53 57 61 62 65 67 66 65 62 62 60 58 59 58 58 59 59 60 62 63 64 65 66 66 67 67 68 69 69 70 70 70 71 71 71 72 71 72 72 73 73 73 73 73 73 73 74 73 73 73 73 73 73 73 73 73 73 74 74 74 74 74 74 73 72 72 71 72 72 73 72 72 72 73 72 72 72 73 74 73 72 72 69 71
34 32 31 33 48 57 57 61 61 61 62 60 62 59 58 58 62 64 65 65 64 62 61 60 58 58 58 57 58 59 59 60 61 63 64 65 66 67 67 69 69 69 70 70 70 71 71 71 71 71 72 72 72 72 73 73 73 73 73 73 74 72 72 73 73 73 73 73 73 73 74 74 74 74 74 73 73 72 72 72 72 73 73 72 72 72 72 72 72 72 72 73 73 72 72 71 70
33 31 30 28 27 52 56 58 60 60 60 59 60 60 59 60 62 64 64 65 63 61 61 60 57 57 57 57 57 58 59 59 60 62 63 65 65 66 67 68 69 69 70 70 70 71 71 71 71 72 72 72 72 72 73 73 72 72 72 72 73 72 72 73 73 73 73 73 72 73 74 74 75 74 74 74 72 73 73 72 72 73 73 72 72 72 72 72 72 72 73 73 74 72 71 71 71
30 31 30 30 29 29 47 57 59 59 58 57 58 58 58 59 61 63 63 64 62 61 61 60 58 57 57 56 57 57 58 59 60 61 63 64 65 66 66 68 68 69 69 70 70 71 71 71 71 72 72 71 72 72 72 72 72 72 71 71 71 72 72 73 73 73 73 72 73 73 74 74 74 74 74 73 73 74 73 72 72 72 73 72 72 71 71 72 72 72 73 73 73 74 74 71 70
33 32 31 30 30 29 30 29 56 59 58 56 57 57 57 58 59 63 63 63 62 61 60 60 59 57 56 56 56 57 57 58 59 60 62 63 64 65 66 67 68 69 69 69 70 70 71 71 71 71 72 71 71 71 72 71 71 71 71 70 70 71 72 72 73 73 73 72 73 74 74 74 74 75 75 74 73 74 73 73 72 72 72 72 72 72 72 72 73 73 74 75 74 73 73 72 70
33 32 31 30 30 28 30 29 43 59 57 56 57 57 57 57 59 62 63 62 62 61 60 59 59 57 56 56 56 57 57 58 59 59 61 62 63 65 66 67 68 68 69 69 69 70 71 71 71 71 72 71 71 71 71 71 71 71 70 70 70 71 72 73 73 73 73 73 75 75 74 74 74 75 75 74 74 74 73 73 73 72 72 73 73 73 73 75 75 75 74 74 75 73 72 72 71
32 31 31 29 29 29 29 32 51 56 56 53 55 55 56 57 59 61 62 62 62 61 60 59 59 58 57 57 57 57 57 58 58 58 60 61 62 64 65 67 67 68 68 68 69 70 70 70 71 71 72 71 71 71 71 71 71 71 70 70 71 71 72 73 73 74 74 74 75 75 75 75 75 75 75 75 74 74 74 74 73 73 73 73 74 73 74 75 75 74 74 73 73 73 74 73 72
31 30 30 29 29 27 26 23 53 56 56 52 53 54 53 57 60 60 62 62 62 62 61 60 60 59 57 57 57 57 57 58 58 58 59 60 62 63 64 66 67 67 68 68 69 69 70 71 71 71 71 71 71 71 72 71 71 71 71 71 71 72 71 74 74 75 75 75 75 76 76 75 75 75 75 75 75 75 74 74 74 74 74 74 74 74 74 74 75 74 74 74 72 69 67 68 72
32 31 30 29 29 27 27 23 53 55 53 57 53 51 51 55 57 59 61 62 62 61 61 61 61 61 60 61 60 59 58 58 58 58 59 60 61 62 63 65 66 67 67 67 68 69 69 70 70 71 71 71 71 72 72 71 72 70 71 71 72 72 73 73 73 73 74 75 75 75 75 76 76 75 76 75 76 75 75 75 75 74 74 74 75 74 74 74 75 75 75 75 72 69 66 67 71
31 31 30 29 29 29 28 27 49 47 48 52 50 44 46 51 56 57 60 61 61 61 60 60 60 61 61 60 59 60 60 59 59 58 58 59 60 62 63 64 65 66 66 67 68 69 69 70 70 71 71 71 71 71 72 71 71 70 69 69 69 69 70 71 71 72 73 74 74 75 76 76 76 76 76 75 76 76 76 75 75 75 75 75 75 75 75 75 74 74 74 75 74 69 66 68 67
30 31 31 30 30 29 27 22 33 32 38 44 50 45 43 47 53 56 59 60 60 61 60 60 60 61 61 60 60 59 59 59 59 59 59 58 60 61 62 63 65 65 66 67 67 68 69 69 70 70 71 71 71 71 71 72 71 70 69 68 68 69 69 70 72 72 73 74 75 75 76 76 76 76 75 75 76 76 76 76 75 75 76 75 76 76 75 75 75 74 75 74 74 75 69 65 67
29 31 30 30 30 29 27 22 27 24 41 45 51 47 43 43 46 54 58 59 59 60 60 60 60 60 60 60 60 59 59 59 59 59 59 59 59 60 62 63 64 65 65 66 67 68 68 69 70 70 70 71 71 71 71 71 70 70 69 68 69 68 68 70 71 72 73 75 75 75 75 76 77 76 76 76 76 76 76 76 75 75 75 75 76 76 76 75 75 75 75 74 74 75 71 70 68
29 29 27 27 28 28 26 23 20 21 25 22 44 49 43 43 46 53 57 56 57 58 59 59 60 60 60 60 60 60 59 59 59 59 59 59 59 60 61 62 63 64 65 65 66 67 68 69 70 70 70 70 70 71 71 71 71 70 69 68 68 69 69 70 72 73 73 75 74 75 75 76 76 77 76 76 76 76 76 76 75 75 75 75 76 76 76 76 76 75 75 74 74 74 74 71 69
30 26 26 24 22 21 19 18 18 24 18 21 38 47 41 41 44 54 56 55 55 57 58 59 59 60 60 60 60 60 59 59 59 59 59 60 59 59 60 62 63 63 64 66 66 66 67 68 69 69 69 69 70 70 71 70 70 70 69 68 68 68 70 70 71 72 73 74 73 74 75 75 75 76 76 76 76 76 76 76 75 75 75 74 76 76 76 76 76 75 75 75 74 74 74 73 70
28 24 23 22 28 28 36 27 24 21 17 21 29 46 41 36 44 53 54 54 54 55 57 58 59 59 60 60 60 60 59 59 59 59 60 60 60 59 60 61 62 63 64 65 65 66 67 68 69 69 69 69 70 70 70 70 70 70 69 68 68 68 68 69 70 71 72 73 73 73 74 74 75 75 76 76 76 76 76 76 75 75 75 75 76 76 76 76 75 75 75 74 74 74 74 74 74
25 25 25 23 27 27 26 28 28 18 18 25 26 45 43 31 38 44 54 54 55 55 55 57 58 58 59 60 60 60 59 59 58 59 59 59 60 59 59 60 61 62 63 64 64 65 66 67 68 69 69 69 69 69 70 69 70 70 69 68 68 68 68 68 69 70 72 72 72 72 73 74 74 75 75 75 76 76 76 76 76 75 76 75 75 76 76 76 76 75 75 74 74 74 74 75 74
21 25 24 21 23 21 19 21 17 17 17 21 31 44 42 41 42 38 40 41 43 52 56 56 57 58 58 59 59 60 60 59 58 58 59 59 59 59 59 60 61 62 63 63 63 64 65 67 68 68 68 69 69 69 69 69 69 69 69 68 68 68 68 68 68 70 71 72 72 72 72 73 73 73 74 74 75 76 76 76 76 75 75 76 76 76 76 76 76 75 75 74 75 74 75 75 74
13 22 22 19 17 17 15 22 21 19 19 19 23 42 40 37 32 44 47 45 47 47 50 54 56 57 58 59 59 59 59 59 58 58 58 58 59 59 59 59 60 61 62 62 63 64 65 66 67 68 68 68 69 69 69 69 69 69 69 69 68 69 67 67 68 68 70 72 72 72 72 72 73 73 73 74 75 75 76 76 76 76 76 76 76 76 76 76 76 75 75 75 75 75 75 74 74
14 21 19 21 23 18 17 19 16 15 18 19 21 40 38 31 36 44 48 51 52 54 54 54 54 56 58 58 59 59 59 59 59 58 58 58 58 59 58 59 60 61 61 62 62 64 65 66 67 68 68 68 69 69 69 69 69 69 69 69 68 68 67 67 67 68 69 70 71 71 72 72 73 73 73 74 75 75 75 76 76 75 75 75 76 76 76 76 76 76 76 75 76 75 75 75 74
17 20 23 20 21 33 18 23 21 21 17 19 30 29 26 30 36 42 45 53 54 54 54 55 55 55 57 58 58 58 59 59 59 59 58 58 58 59 59 58 59 60 61 61 62 63 64 65 67 67 68 68 68 69 69 69 69 69 69 69 68 68 69 68 68 69 69 70 71 71 71 72 72 73 73 74 74 75 75 75 76 76 75 75 75 76 76 76 75 75 75 75 75 76 75 75 75
21 20 21 20 23 21 27 38 34 25 20 17 28 21 26 33 29 41 51 53 53 54 54 54 54 56 57 58 58 58 58 59 59 59 58 58 57 58 58 58 58 59 60 61 62 63 64 65 66 67 68 68 68 69 69 69 69 69 69 69 68 68 68 67 66 67 67 69 70 70 71 71 72 73 73 73 73 74 75 75 75 75 75 75 75 75 75 75 75 75 75 75 75 75 76 75 75
20 20 21 23 24 24 23 17 21 21 16 18 20 27 34 34 20 37 51 52 53 53 53 53 54 55 56 57 58 58 58 59 59 60 60 59 58 58 58 58 58 58 59 60 62 62 63 65 66 66 67 67 68 68 69 69 69 68 68 68 68 68 67 67 66 66 66 68 69 70 70 71 71 71 72 72 73 74 74 76 75 75 75 75 75 75 75 75 75 75 75 75 75 75 76 76 76
19 19 23 24 21 20 26 21 16 16 16 16 20 30 36 35 34 43 51 51 51 52 53 53 54 55 56 58 59 58 59 59 59 59 60 59 58 58 58 57 58 58 60 60 61 61 62 64 65 66 66 67 67 68 68 69 69 68 68 68 68 68 67 67 67 67 67 67 67 68 68 70 70 71 73 73 73 73 74 74 75 75 75 75 75 75 75 75 75 75 75 74 75 75 75 75 75
20 21 17 19 27 28 24 24 24 19 17 16 16 34 32 37 35 46 50 50 50 51 52 53 54 54 55 57 60 59 58 59 59 59 59 60 59 58 57 58 57 58 58 59 60 60 61 63 65 65 66 67 67 68 69 69 68 68 68 68 68 68 68 67 67 67 66 66 66 67 67 68 69 71 71 72 72 72 73 73 74 74 74 74 75 75 75 75 75 75 74 74 75 75 75 75 74
16 14 14 15 18 22 27 27 24 20 21 20 22 29 32 35 36 47 51 50 49 50 51 53 54 54 54 56 59 59 58 59 59 59 60 60 60 59 58 58 58 58 59 59 59 60 60 62 63 65 66 66 66 67 68 68 69 69 69 68 67 68 67 67 67 67 66 66 66 67 67 67 69 70 71 71 72 72 73 73 73 74 74 74 75 75 75 75 75 74 74 75 75 75 75 74 75
15 15 14 15 14 18 23 21 24 26 24 20 23 30 34 37 44 50 52 51 49 49 50 51 53 54 54 55 57 59 58 59 60 60 60 60 60 60 59 58 58 58 59 59 58 59 60 61 62 64 64 65 66 67 68 68 69 68 68 68 67 67 67 67 66 66 66 65 65 66 67 68 67 68 70 71 71 71 72 73 73 74 74 74 74 75 74 75 74 74 74 74 74 75 75 74 74